Flag for Canada Weather past 2 weeks in Kelowna, British Columbia, Canada

Now
39 °F

Overcast.


Feels Like: 35 °F
Forecast: 34 / 45 °F
Wind: 6 mph from Southwest

Location: Kelowna Airport

Current Time: Jan 27, 2015 at 1:47:05 PM

Latest Report: Jan 27, 2015 at 1:00 PM


Visibility: 9 mi

Pressure: 30.05 "Hg

Humidity: 100%

Dew point: 39 °F

Location of KelownaLocation

Historic Weather in Kelowna — Graph

°F

Kelowna temperature yesterday

Maximum temperature yesterday: 39 °F (at 3:00 PM)
Minimum temperature yesterday: 27 °F (at 11:00 PM)
Average temperature yesterday: 33 °F

Past Weeks' High & Low Weather Summary

 TemperatureHumidityPressure
High41 °F (Jan 19, 1:00 PM)100% (Jan 15, 11:04 PM)30.63 "Hg (Jan 15, 11:04 PM)
Low16 °F (Jan 20, 7:53 AM)60% (Jan 15, 9:00 AM)29.70 "Hg (Jan 18, 4:00 AM)
Average33 °F88%30.28 "Hg
* Reported Jan 12 12:00 Noon — Jan 27 12:00 Noon, Kelowna, Weather by CustomWeather, © 2014

Note: Actual official high and low records may vary slightly from our data, if they occured in-between our weather recording intervals... More about our weather records

Advertising

Kelowna weather history for previous 24 hours

 ConditionsComfort  
Time TempWeatherWind HumidityBarometerVisibility
12:00 PM
Jan 27
37 °FOvercast.6 mph100%30.06 "Hg9 mi
11:00 AM36 °FOvercast.3 mph100%30.06 "Hg9 mi
10:00 AM37 °FOvercast.3 mph93%30.08 "Hg9 mi
9:00 AM36 °FLow clouds.6 mph100%30.06 "Hg9 mi
8:02 AM34 °FFog.2 mph100%30.05 "Hg5 mi
7:00 AM34 °FFog.3 mph100%30.05 "Hg3 mi
6:54 AM34 °FFog.2 mph100%30.04 "Hg3 mi
6:00 AM34 °FFog.6 mph100%30.04 "Hg2 mi
5:54 AM34 °FFog.5 mph100%30.04 "Hg2 mi
5:03 AM34 °FFog.No wind100%30.04 "Hg5 mi
4:00 AM32 °FIce fog.No wind100%30.03 "Hg3 mi
3:01 AM32 °FIce fog.No wind100%30.04 "Hg3 mi
2:00 AM30 °FIce fog.No wind100%30.06 "Hg4 mi
1:57 AM30 °FIce fog.No wind100%30.06 "Hg4 mi
1:04 AM30 °FIce fog.3 mph100%30.04 "Hg0 mi
1:01 AM30 °FIce fog.2 mph100%30.04 "Hg0 mi
12:00 AM30 °FIce fog.2 mph100%30.05 "Hg0 mi
11:00 PM
Jan 26
27 °FIce fog.2 mph100%30.05 "Hg5 mi
10:04 PM28 °FIce fog.2 mph100%30.04 "Hg1 mi
9:55 PM28 °FIce fog.No wind100%30.05 "Hg2 mi
9:00 PM30 °FClear.No wind100%30.04 "Hg7 mi
8:49 PM28 °FIce fog.2 mph100%30.04 "Hg6 mi
8:04 PM30 °FIce fog.No wind100%30.02 "Hg1 mi
8:00 PM30 °FIce fog.No wind100%30.03 "Hg0 mi
7:51 PM30 °FIce fog.No wind100%30.03 "Hg0 mi
7:00 PM30 °FIce fog.2 mph100%30.03 "Hg0 mi
6:47 PM32 °FIce fog.5 mph100%30.03 "Hg0 mi
6:00 PM32 °FLight rain. Fog.6 mph100%30.03 "Hg0 mi
5:00 PM34 °FLight rain. Fog.8 mph100%30.02 "Hg0 mi
4:56 PM34 °FLight rain. Fog.7 mph100%30.02 "Hg0 mi
4:00 PM39 °FSunny.No wind87%30.01 "Hg9 mi
3:00 PM39 °FSunny.No wind93%30.02 "Hg9 mi
2:00 PM37 °FSunny.2 mph93%30.03 "Hg9 mi
1:00 PM36 °FLow clouds.2 mph100%30.06 "Hg9 mi
Weather by CustomWeather, © 2014

See weather overviewHow to use our weather pages